UAL617 EDDM-KBOS

Flight info

Callsign UAL617
Flight time N/A
Altitude 34000
Route OLASO2S OLASO Z714 PELOG UM164 LUPEN/N0480F350 DCT POGOL DCT LUVAL DCT ROTSI/N0476F340 DCT AMODO DCT COHPA UM729 RESMI UN491 LGL UN502 JSY DCT LIZAD DCT LESLU DCT LIMRI/M083F360 DCT 53N020W 53N030W 53N040W 52N050W DCT TUDEP/N0464F360 DCT EBONY DCT AJJAY OOSHN5
Aircraft B77W/H-SDE1E2E3FGHIJ2J3J4J5M1RWXY/LB1D1

Departure

Time 2026-05-05 18:41
Airport Munich Airport (EDDM)

Arrival

Time N/A
Airport Boston Logan International Airport (KBOS)
Time Latitude Longitude Altitude Speed Heading
2026-05-05 18:00 48.35531 11.79720 1477 ft 0 kts 83°
2026-05-05 18:26 48.35531 11.79721 1477 ft 0 kts 83°
2026-05-05 18:27 48.35531 11.79711 1477 ft 2 kts 83°
2026-05-05 18:27 48.35528 11.79680 1477 ft 3 kts 84°
2026-05-05 18:27 48.35527 11.79645 1478 ft 3 kts 97°
2026-05-05 18:27 48.35533 11.79614 1478 ft 3 kts 115°
2026-05-05 18:28 48.35555 11.79573 1478 ft 2 kts 148°
2026-05-05 18:28 48.35567 11.79566 1478 ft 2 kts 178°
2026-05-05 18:28 48.35590 11.79565 1478 ft 3 kts 176°
2026-05-05 18:29 48.35603 11.79564 1478 ft 0 kts 174°
2026-05-05 18:32 48.35600 11.79564 1478 ft 1 kts 174°
2026-05-05 18:32 48.35577 11.79568 1478 ft 5 kts 174°
2026-05-05 18:32 48.35537 11.79574 1478 ft 8 kts 174°
2026-05-05 18:33 48.35468 11.79585 1478 ft 11 kts 173°
2026-05-05 18:33 48.35384 11.79600 1479 ft 12 kts 174°
2026-05-05 18:33 48.35309 11.79614 1479 ft 11 kts 172°
2026-05-05 18:33 48.35231 11.79628 1479 ft 11 kts 174°
2026-05-05 18:34 48.35159 11.79639 1480 ft 9 kts 174°
2026-05-05 18:34 48.35099 11.79650 1480 ft 8 kts 173°
2026-05-05 18:34 48.35055 11.79658 1480 ft 5 kts 173°
2026-05-05 18:34 48.35025 11.79663 1480 ft 4 kts 173°
2026-05-05 18:35 48.35000 11.79668 1480 ft 3 kts 173°
2026-05-05 18:35 48.34963 11.79674 1480 ft 7 kts 173°
2026-05-05 18:35 48.34902 11.79685 1480 ft 10 kts 173°
2026-05-05 18:35 48.34826 11.79707 1481 ft 10 kts 150°
2026-05-05 18:36 48.34810 11.79792 1480 ft 8 kts 87°
2026-05-05 18:36 48.34815 11.79886 1480 ft 10 kts 84°
2026-05-05 18:36 48.34822 11.80004 1480 ft 12 kts 84°
2026-05-05 18:36 48.34834 11.80141 1480 ft 13 kts 83°
2026-05-05 18:37 48.34845 11.80276 1479 ft 12 kts 83°
2026-05-05 18:37 48.34854 11.80393 1479 ft 10 kts 89°
2026-05-05 18:37 48.34829 11.80506 1479 ft 13 kts 132°
2026-05-05 18:37 48.34750 11.80556 1479 ft 10 kts 173°
2026-05-05 18:38 48.34683 11.80568 1479 ft 8 kts 173°
2026-05-05 18:38 48.34631 11.80561 1480 ft 6 kts 203°
2026-05-05 18:38 48.34607 11.80541 1480 ft 0 kts 214°
2026-05-05 18:39 48.34602 11.80537 1480 ft 4 kts 214°
2026-05-05 18:39 48.34548 11.80479 1480 ft 14 kts 218°
2026-05-05 18:40 48.34481 11.80387 1480 ft 11 kts 238°
2026-05-05 18:40 48.34470 11.80338 1480 ft 0 kts 262°
2026-05-05 18:40 48.34455 11.80132 1481 ft 51 kts 265°
2026-05-05 18:40 48.34392 11.79310 1483 ft 115 kts 263°
2026-05-05 18:41 48.34277 11.77837 1489 ft 173 kts 263°
2026-05-05 18:41 48.34112 11.75803 1742 ft 203 kts 264°
2026-05-05 18:41 48.33963 11.73765 2672 ft 200 kts 265°
2026-05-05 18:41 48.33818 11.71793 3459 ft 198 kts 266°
2026-05-05 18:42 48.33658 11.69588 3832 ft 217 kts 266°
2026-05-05 18:42 48.33487 11.67243 4279 ft 232 kts 265°
2026-05-05 18:42 48.33307 11.64841 5037 ft 233 kts 265°
2026-05-05 18:42 48.33133 11.62452 5745 ft 235 kts 265°
2026-05-05 18:43 48.32956 11.60005 6352 ft 244 kts 265°
2026-05-05 18:43 48.32767 11.57409 6877 ft 257 kts 264°
2026-05-05 18:43 48.32583 11.54904 7667 ft 258 kts 263°
2026-05-05 18:43 48.32390 11.52287 8450 ft 263 kts 263°
2026-05-05 18:44 48.32189 11.49574 9151 ft 267 kts 262°
2026-05-05 18:44 48.31980 11.46757 9920 ft 271 kts 262°
2026-05-05 18:44 48.31772 11.43961 10647 ft 274 kts 262°
2026-05-05 18:44 48.31559 11.41097 11361 ft 278 kts 262°
2026-05-05 18:45 48.31349 11.38303 12017 ft 282 kts 262°
2026-05-05 18:45 48.31126 11.35335 12742 ft 284 kts 262°
2026-05-05 18:45 48.30899 11.32313 13512 ft 287 kts 261°
2026-05-05 18:45 48.30672 11.29314 14190 ft 289 kts 261°
2026-05-05 18:46 48.30420 11.26262 14648 ft 300 kts 260°
2026-05-05 18:46 48.30144 11.23222 14915 ft 317 kts 260°
2026-05-05 18:46 48.29834 11.19790 15265 ft 333 kts 260°
2026-05-05 18:46 48.29517 11.16247 15625 ft 349 kts 260°
2026-05-05 18:47 48.29178 11.12466 16012 ft 364 kts 260°
2026-05-05 18:47 48.28842 11.08722 16383 ft 379 kts 260°
2026-05-05 18:47 48.28506 11.04987 16861 ft 389 kts 260°
2026-05-05 18:47 48.28160 11.01154 17548 ft 394 kts 260°
2026-05-05 18:48 48.27808 10.97264 18245 ft 398 kts 260°
2026-05-05 18:48 48.27426 10.93074 18949 ft 403 kts 260°
2026-05-05 18:48 48.27063 10.89100 19572 ft 409 kts 260°
2026-05-05 18:48 48.26687 10.85003 20230 ft 413 kts 260°
2026-05-05 18:49 48.26291 10.80701 20917 ft 418 kts 259°
2026-05-05 18:49 48.25885 10.76315 21482 ft 425 kts 260°
2026-05-05 18:49 48.25470 10.71845 22121 ft 430 kts 260°
2026-05-05 18:49 48.25057 10.67418 22794 ft 433 kts 259°
2026-05-05 18:50 48.24629 10.62862 23389 ft 438 kts 259°
2026-05-05 18:50 48.24196 10.58265 23954 ft 443 kts 259°
2026-05-05 18:50 48.23773 10.53796 24508 ft 447 kts 259°
2026-05-05 18:50 48.23357 10.49412 25175 ft 448 kts 259°
2026-05-05 18:51 48.22937 10.44977 25785 ft 450 kts 261°
2026-05-05 18:51 48.22765 10.40301 26287 ft 458 kts 269°
2026-05-05 18:51 48.23048 10.35524 26806 ft 463 kts 275°
2026-05-05 18:51 48.23477 10.30649 27441 ft 465 kts 274°
2026-05-05 18:52 48.23923 10.25641 27949 ft 469 kts 274°
2026-05-05 18:52 48.24368 10.20612 28412 ft 474 kts 274°
2026-05-05 18:52 48.24808 10.15607 28791 ft 479 kts 274°
2026-05-05 18:52 48.25248 10.10594 29324 ft 481 kts 274°
2026-05-05 18:53 48.25682 10.05627 30088 ft 478 kts 274°
2026-05-05 18:53 48.26114 10.00660 30829 ft 474 kts 274°
2026-05-05 18:53 48.26541 9.95726 31446 ft 472 kts 274°
2026-05-05 18:53 48.26960 9.90861 32042 ft 470 kts 273°
2026-05-05 18:54 48.27379 9.85954 32502 ft 470 kts 274°
2026-05-05 18:54 48.27794 9.81084 33069 ft 468 kts 273°
2026-05-05 18:54 48.28205 9.76231 33588 ft 465 kts 273°
2026-05-05 18:54 48.28618 9.71339 33804 ft 468 kts 273°
2026-05-05 18:55 48.29439 9.61518 33832 ft 463 kts 273°
2026-05-05 18:55 48.30237 9.51849 33857 ft 471 kts 273°
2026-05-05 18:56 48.31048 9.41932 33835 ft 469 kts 273°
2026-05-05 18:56 48.31838 9.32199 33861 ft 462 kts 272°
2026-05-05 18:57 48.32643 9.22133 33854 ft 465 kts 272°
2026-05-05 18:57 48.33427 9.12221 33832 ft 467 kts 272°
2026-05-05 18:58 48.34208 9.02257 33841 ft 463 kts 273°
2026-05-05 18:58 48.34934 8.92884 33874 ft 462 kts 272°
2026-05-05 18:59 48.35661 8.83374 33883 ft 467 kts 273°
2026-05-05 18:59 48.36362 8.74129 33869 ft 465 kts 273°
2026-05-05 19:00 48.37076 8.64584 33821 ft 471 kts 273°
2026-05-05 19:00 48.37762 8.55341 33828 ft 466 kts 273°
2026-05-05 19:01 48.38454 8.45890 33781 ft 467 kts 273°
2026-05-05 19:01 48.38786 8.41319 33887 ft 466 kts 273°
2026-05-05 19:01 48.39115 8.36764 33859 ft 468 kts 273°
2026-05-05 19:02 48.39807 8.27094 33842 ft 469 kts 272°
2026-05-05 19:02 48.40454 8.17958 33878 ft 466 kts 272°